Regional Weather Roundup
Issued by NWS

Home | Current Version | Previous Version | Text Only | Print | Product List | Glossary On
Versions: 1 2 3 4 5 6 7 8 9 10 11 12 13 14 15 16 17 18 19 20 21 22 23 24 25 26 27 28 29 30 31 32 33 34 35 36 37 38 39 40 41 42 43 44 45 46 47 48 49 50
448
ASUS44 KJAN 260120
RWRMS

MISSISSIPPI HOURLY WEATHER ROUNDUP
NATIONAL WEATHER SERVICE JACKSON MS
800 PM CDT MON JUL 25 2016

NOTE: "FAIR: INDICATES FEW OR NO CLOUDS BELOW 12,000 FEET WITH NO
SIGNIFICANT WEATHER AND/OR OBSTRUCTIONS TO VISIBILITY.

MSZ001>002-007>008-010>013-018>021-025>028-034>036-260200-
NORTHWEST MISSISSIPPI

CITY           SKY/WX    TMP DP  RH WIND       PRES   REMARKS
CLEVELAND      FAIR      86  80  81 CALM      29.92S HX 101
GREENWOOD      CLEAR     89  70  53 E3        29.93R HX  94
GREENVILLE     CLEAR     87  75  67 SE5       29.92S HX  96
OXFORD         FAIR      84  72  65 SE3       29.97S
WINONA         FAIR      82  76  81 CALM      29.94S HX  90
$$

MSZ003>006-009-014>017-022>024-029>033-037>039-260200-
NORTHEAST MISSISSIPPI

CITY           SKY/WX    TMP DP  RH WIND       PRES   REMARKS
ABERDEEN       FAIR      84  66  54 SE3       29.97R
COLUMBUS AFB   CLEAR     89  77  68 E2        29.95R HX 102
GOLDN TRIANGLE CLEAR     88  70  55 E5        29.95R HX  92
TUPELO         CLEAR     88  70  55 S6        29.96R HX  93
$$

MSZ040-058-260200-
CENTRAL MISSISSIPPI

CITY           SKY/WX    TMP DP  RH WIND       PRES   REMARKS
JACKSON INTL   PTCLDY    84  72  67 S15       29.96R
JACKSON HAWKNS MOCLDY    84  73  69 S7        29.97R HX  90
MADISON        FAIR      82  70  65 S8        29.96R
MERIDIAN KEY   CLEAR     90  69  50 SE5       29.96R HX  94
MERIDIAN NAS   PTCLDY    89  67  47 SE3       29.97R HX  92
VICKSBURG VKS  CLEAR     81  73  78 S5        29.95R
$$

MSZ059>079-260200-
SOUTH MISSISSIPPI

CITY           SKY/WX    TMP DP  RH WIND       PRES   REMARKS
BROOKHAVEN     FAIR     N/A N/A N/A SE3       29.97R
COLUMBIA       DRIZZLE   75  73  94 CALM      29.99F
HATTIESBURG    MOCLDY    81  76  84 E3        29.97R
MCCOMB         PTCLDY    78  74  87 CALM      29.97R
NATCHEZ        CLOUDY    79  73  83 CALM      29.97R
PINE BELT      CLOUDY    75  72  88 CALM      29.98F
$$

MSZ080>082-260200-
COASTAL MISSISSIPPI

CITY           SKY/WX    TMP DP  RH WIND       PRES   REMARKS
BAY ST LOUIS   MOCLDY    79  72  78 MISG      29.94R
BILOXI         PTCLDY    86  76  71 SE8       29.93R HX  96
PASCAGOULA     PTCLDY    84  78  82 SE8       29.94R HX  95
GULFPORT       PTCLDY    83  76  79 S3        29.93R HX  91
$$

LAZ007>009-015>016-023>026-260200-
NORTHEAST LOUISIANA

CITY           SKY/WX    TMP DP  RH WIND       PRES   REMARKS
BASTROP        FAIR      83  80  92 CALM      29.94R HX  96
TALLULAH/VBURG CLOUDY    84  72  67 S7        29.94R
VIDALIA        FAIR      80  76  89 CALM      29.98R
$$




USA.gov is the U.S. government's official web portal to all federal, state and local government web resources and services.